Flag for U.S.A. Weather past 2 weeks in Cedar Rapids, Iowa, U.S.A.

Now
69 °F

Fog.


Feels Like: 69 °F
Forecast: 67 / 89 °F
Wind: 5 mph from South

Location: Cedar Rapids Municipal Airport

Current Time: Sep 3, 2015 at 8:06:18 AM

Latest Report: Sep 3, 2015 at 6:52 AM


Visibility: 5 mi

Pressure: 29.92 "Hg

Humidity: 100%

Dew point: 69 °F

Location of Cedar RapidsLocation

Historic Weather in Cedar Rapids — Graph

°F

Cedar Rapids temperature yesterday

Maximum temperature yesterday: 83 °F (at 3:52 PM)
Minimum temperature yesterday: 69 °F (at 4:52 AM)
Average temperature yesterday: 74 °F

Past Weeks' High & Low Weather Summary

 TemperatureHumidityPressure
High87 °F (Sep 1, 2:52 PM)100% (Aug 19, 4:52 PM)30.20 "Hg (Aug 19, 4:52 PM)
Low47 °F (Aug 26, 6:52 AM)45% (Aug 20, 1:52 PM)29.66 "Hg (Aug 19, 7:52 AM)
Average66 °F85%29.99 "Hg
* Reported Aug 19 6:52 AM — Sep 3 6:52 AM, Cedar Rapids, Weather by CustomWeather, © 2015

Note: Actual official high and low records may vary slightly from our data, if they occured in-between our weather recording intervals... More about our weather records

Advertising

Cedar Rapids weather history for previous 24 hours

 ConditionsComfort  
Time TempWeatherWind HumidityBarometerVisibility
6:52 AM
Thu, Sep 3
69 °FFog.5 mph100%29.92 "Hg5 mi
5:52 AM69 °FPassing clouds.5 mph100%29.91 "Hg7 mi
4:52 AM70 °FPassing clouds.3 mph97%29.91 "Hg8 mi
3:52 AM71 °FClear.6 mph96%29.90 "Hg8 mi
2:52 AM72 °FClear.7 mph93%29.90 "Hg9 mi
1:52 AM71 °FClear.7 mph96%29.91 "Hg8 mi
12:52 AM72 °FClear.7 mph93%29.91 "Hg8 mi
11:52 PM
Wed, Sep 2
71 °FClear.6 mph100%29.92 "Hg7 mi
10:52 PM72 °FClear.6 mph97%29.93 "Hg7 mi
9:52 PM72 °FClear.5 mph97%29.92 "Hg7 mi
8:52 PM73 °FClear.6 mph94%29.91 "Hg8 mi
7:52 PM75 °FSunny.6 mph88%29.90 "Hg8 mi
6:52 PM79 °FSunny.8 mph77%29.91 "Hg9 mi
5:52 PM81 °FSunny.8 mph72%29.90 "Hg9 mi
4:52 PM82 °FSunny.13 mph72%29.91 "Hg9 mi
3:52 PM83 °FPassing clouds.14 mph68%29.92 "Hg10 mi
2:52 PM82 °FPassing clouds.12 mph72%29.94 "Hg10 mi
1:52 PM81 °FPartly sunny.10 mph77%29.95 "Hg9 mi
12:52 PM78 °FPartly sunny.9 mph82%29.97 "Hg8 mi
11:52 AM75 °FSunny.10 mph88%29.98 "Hg7 mi
10:52 AM74 °FSunny.7 mph91%29.99 "Hg7 mi
9:52 AM73 °FFog.7 mph90%30.00 "Hg6 mi
8:52 AM71 °FFog.12 mph96%29.97 "Hg5 mi
Weather by CustomWeather, © 2015

See weather overviewHow to use our weather pages